EW8805 Weather Reports


Display with metric or nautical units.
time (UTC)temp
F
wind
direction
speed
MPH
gust
MPH
rain 1hr
in
rain 24hr
in
rain mn
in
humidity
%
barometer
mb
20180716160042 85 341 1.0 9.0 0.00 0.00 0.00 26 1018.3
20180716155519 85 294 5.0 11.0 0.00 0.00 0.00 26 1018.3
20180716155022 86 311 6.0 11.0 0.00 0.00 0.00 25 1018.3
20180716154532 86 347 4.0 7.0 0.00 0.00 0.00 25 1018.3
20180716154029 85 278 4.0 7.0 0.00 0.00 0.00 26 1018.3
20180716153535 85 321 1.0 10.0 0.00 0.00 0.00 27 1018.4
20180716153017 85 299 3.0 10.0 0.00 0.00 0.00 26 1018.4
20180716152522 85 313 2.0 6.0 0.00 0.00 0.00 26 1018.5
20180716152020 85 57 3.0 6.0 0.00 0.00 0.00 26 1018.6
20180716151526 86 44 3.0 6.0 0.00 0.00 0.00 25 1018.6
20180716151025 85 213 1.0 5.0 0.00 0.00 0.00 26 1018.6
20180716150526 84 255 0.0 8.0 0.00 0.00 0.00 27 1018.6
20180716150046 84 262 4.0 10.0 0.00 0.00 0.00 27 1018.7
20180716145530 84 273 5.0 10.0 0.00 0.00 0.00 26 1018.7
20180716145025 84 277 4.0 9.0 0.00 0.00 0.00 25 1018.7
20180716144534 84 184 4.0 15.0 0.00 0.00 0.00 25 1018.8
20180716144020 83 267 7.0 15.0 0.00 0.00 0.00 26 1018.8
20180716143530 83 260 8.0 14.0 0.00 0.00 0.00 26 1018.8
20180716143028 84 280 8.0 14.0 0.00 0.00 0.00 27 1018.8
20180716142516 84 249 3.0 11.0 0.00 0.00 0.00 28 1018.8
20180716142024 83 282 2.0 9.0 0.00 0.00 0.00 28 1018.8
20180716141525 83 283 1.0 6.0 0.00 0.00 0.00 28 1018.9
20180716141028 84 65 1.0 4.0 0.00 0.00 0.00 28 1018.8
20180716140515 83 110 2.0 6.0 0.00 0.00 0.00 29 1018.9
20180716140052 83 309 1.0 10.0 0.00 0.00 0.00 28 1019.0
20180716135519 82 280 5.0 13.0 0.00 0.00 0.00 29 1019.1
20180716135027 83 252 8.0 11.0 0.00 0.00 0.00 28 1019.0
20180716134528 83 264 7.0 10.0 0.00 0.00 0.00 27 1019.0
20180716134031 83 205 2.0 4.0 0.00 0.00 0.00 28 1019.1
20180716133530 82 123 1.0 6.0 0.00 0.00 0.00 29 1019.1
20180716133023 82 29 2.0 12.0 0.00 0.00 0.00 29 1019.2
20180716132533 82 242 6.0 14.0 0.00 0.00 0.00 28 1019.2
20180716132032 82 278 7.0 14.0 0.00 0.00 0.00 28 1019.2
20180716131521 81 293 5.0 12.0 0.00 0.00 0.00 27 1019.2
20180716131018 82 223 5.0 12.0 0.00 0.00 0.00 26 1019.3
20180716130530 81 297 3.0 8.0 0.00 0.00 0.00 29 1019.4
20180716130053 81 213 5.0 11.0 0.00 0.00 0.00 29 1019.4
20180716125535 81 256 8.0 11.0 0.00 0.00 0.00 29 1019.5
20180716125019 81 345 1.0 8.0 0.00 0.00 0.00 30 1019.5
20180716124529 81 139 2.0 8.0 0.00 0.00 0.00 29 1019.6
20180716124027 81 327 4.0 8.0 0.00 0.00 0.00 29 1019.7
20180716123516 80 39 3.0 12.0 0.00 0.00 0.00 30 1019.8
20180716123022 80 325 7.0 14.0 0.00 0.00 0.00 31 1019.9
20180716122532 80 313 8.0 17.0 0.00 0.00 0.00 31 1019.9
20180716122031 81 311 11.0 17.0 0.00 0.00 0.00 30 1019.9
20180716121517 81 297 2.0 11.0 0.00 0.00 0.00 31 1019.9
20180716121020 80 278 3.0 13.0 0.00 0.00 0.00 32 1019.9
20180716120527 79 315 1.0 13.0 0.00 0.00 0.00 33 1019.9
20180716120049 80 288 6.0 12.0 0.00 0.00 0.00 32 1020.0
20180716115533 80 267 3.0 11.0 0.00 0.00 0.00 34 1020.0
20180716115035 80 305 4.0 7.0 0.00 0.00 0.00 33 1020.0
20180716114521 80 22 0.0 4.0 0.00 0.00 0.00 35 1020.0
20180716114016 79 293 1.0 7.0 0.00 0.00 0.00 36 1020.1
20180716113527 79 352 4.0 8.0 0.00 0.00 0.00 36 1020.2
20180716113021 78 18 2.0 14.0 0.00 0.00 0.00 38 1020.2
20180716112529 78 294 8.0 14.0 0.00 0.00 0.00 38 1020.2
20180716112026 78 273 1.0 8.0 0.00 0.00 0.00 39 1020.2
20180716111527 78 335 5.0 8.0 0.00 0.00 0.00 40 1020.3
20180716111027 77 288 0.0 8.0 0.00 0.00 0.00 41 1020.3
20180716110534 77 257 5.0 9.0 0.00 0.00 0.00 42 1020.4
20180716110053 77 232 2.0 10.0 0.00 0.00 0.00 42 1020.3
20180716105531 77 266 2.0 12.0 0.00 0.00 0.00 42 1020.4
20180716105030 76 291 6.0 12.0 0.00 0.00 0.00 43 1020.4
20180716104516 76 46 3.0 8.0 0.00 0.00 0.00 43 1020.3
20180716104016 76 331 4.0 8.0 0.00 0.00 0.00 43 1020.4
20180716103522 76 243 1.0 12.0 0.00 0.00 0.00 40 1020.4
20180716103022 76 264 3.0 14.0 0.00 0.00 0.00 42 1020.5
20180716102521 76 258 4.0 14.0 0.00 0.00 0.00 43 1020.4
20180716102022 75 276 5.0 10.0 0.00 0.00 0.00 46 1020.4
20180716101530 74 285 2.0 8.0 0.00 0.00 0.00 46 1020.5
20180716101031 74 256 5.0 12.0 0.00 0.00 0.00 46 1020.5
20180716100519 74 262 9.0 12.0 0.00 0.00 0.00 47 1020.5
20180716100056 74 236 6.0 12.0 0.00 0.00 0.00 48 1020.5
20180716095520 74 257 7.0 13.0 0.00 0.00 0.00 48 1020.5
20180716095020 73 288 8.0 13.0 0.00 0.00 0.00 50 1020.5
20180716094525 73 236 7.0 13.0 0.00 0.00 0.00 51 1020.5
20180716094030 73 288 7.0 12.0 0.00 0.00 0.00 52 1020.6
20180716093518 73 232 8.0 12.0 0.00 0.00 0.00 51 1020.6
20180716093031 72 257 5.0 10.0 0.00 0.00 0.00 52 1020.5
20180716092518 72 246 7.0 12.0 0.00 0.00 0.00 52 1020.5
20180716092016 72 277 8.0 13.0 0.00 0.00 0.00 54 1020.4
20180716091520 71 256 10.0 13.0 0.00 0.00 0.00 56 1020.4
20180716091018 71 264 9.0 14.0 0.00 0.00 0.00 56 1020.4
20180716090529 71 281 9.0 14.0 0.00 0.00 0.00 57 1020.4
20180716090045 70 259 9.0 14.0 0.00 0.00 0.00 56 1020.4
20180716085523 70 284 9.0 17.0 0.00 0.00 0.00 56 1020.5
20180716085021 70 285 11.0 17.0 0.00 0.00 0.00 58 1020.5
20180716084526 70 283 11.0 16.0 0.00 0.00 0.00 58 1020.5
20180716084028 70 259 11.0 16.0 0.00 0.00 0.00 59 1020.6
20180716083517 69 233 10.0 14.0 0.00 0.00 0.00 60 1020.6
20180716083016 69 243 9.0 14.0 0.00 0.00 0.00 61 1020.6
20180716082517 68 222 8.0 13.0 0.00 0.00 0.00 62 1020.6
20180716082022 68 246 10.0 14.0 0.00 0.00 0.00 61 1020.6
20180716081530 68 256 6.0 12.0 0.00 0.00 0.00 62 1020.6
20180716081029 68 281 9.0 12.0 0.00 0.00 0.00 63 1020.6
20180716080533 68 257 8.0 12.0 0.00 0.00 0.00 64 1020.7
20180716080056 67 240 8.0 12.0 0.00 0.00 0.00 65 1020.6
20180716075517 67 257 9.0 11.0 0.00 0.00 0.00 65 1020.6
20180716075035 67 251 9.0 11.0 0.00 0.00 0.00 65 1020.6
20180716074522 67 246 8.0 11.0 0.00 0.00 0.00 65 1020.6
20180716074031 67 252 7.0 11.0 0.00 0.00 0.00 66 1020.6
20180716073516 66 280 4.0 11.0 0.00 0.00 0.00 68 1020.6
20180716073019 66 259 6.0 13.0 0.00 0.00 0.00 68 1020.6
20180716072528 66 276 8.0 12.0 0.00 0.00 0.00 68 1020.5
20180716072025 65 266 9.0 12.0 0.00 0.00 0.00 70 1020.5
20180716071529 65 286 9.0 12.0 0.00 0.00 0.00 71 1020.4
20180716071028 65 277 7.0 12.0 0.00 0.00 0.00 71 1020.4
20180716070531 65 249 9.0 12.0 0.00 0.00 0.00 71 1020.4
20180716070047 65 255 8.0 12.0 0.00 0.00 0.00 71 1020.4
20180716065534 64 285 9.0 12.0 0.00 0.00 0.00 71 1020.4
20180716065026 64 243 7.0 11.0 0.00 0.00 0.00 73 1020.4
20180716064520 64 249 6.0 11.0 0.00 0.00 0.00 73 1020.4
20180716064021 64 262 8.0 10.0 0.00 0.00 0.00 73 1020.4
20180716063524 64 253 5.0 10.0 0.00 0.00 0.00 73 1020.3
20180716063025 63 246 7.0 10.0 0.00 0.00 0.00 73 1020.2
20180716062526 63 260 5.0 7.0 0.00 0.00 0.00 73 1020.2
20180716062025 63 252 5.0 8.0 0.00 0.00 0.00 73 1020.2
20180716061525 63 274 5.0 8.0 0.00 0.00 0.00 73 1020.3
20180716061028 63 246 4.0 9.0 0.00 0.00 0.00 73 1020.3
20180716060533 63 243 4.0 9.0 0.00 0.00 0.00 73 1020.3
20180716060049 63 236 4.0 6.0 0.00 0.00 0.00 73 1020.2
20180716055529 63 255 1.0 3.0 0.00 0.00 0.00 72 1020.2
20180716055032 62 280 2.0 5.0 0.00 0.00 0.00 73 1020.1
20180716054533 62 246 2.0 9.0 0.00 0.00 0.00 73 1020.1
20180716054034 62 232 5.0 11.0 0.00 0.00 0.00 73 1019.9
20180716053520 61 229 7.0 11.0 0.00 0.00 0.00 73 1019.8
20180716053023 61 253 8.0 11.0 0.00 0.00 0.00 73 1019.8
20180716052527 61 245 7.0 11.0 0.00 0.00 0.00 73 1019.8
20180716052030 61 267 9.0 11.0 0.00 0.00 0.00 72 1019.7
20180716051517 61 231 7.0 11.0 0.00 0.00 0.00 72 1019.6
20180716051016 62 250 6.0 11.0 0.00 0.00 0.00 72 1019.6
20180716050525 61 229 9.0 11.0 0.00 0.00 0.00 72 1019.6
20180716050041 61 195 8.0 10.0 0.00 0.00 0.00 72 1019.5
20180716045524 61 231 7.0 10.0 0.00 0.00 0.00 72 1019.5
20180716045026 61 257 4.0 6.0 0.00 0.00 0.00 72 1019.5
20180716044529 61 260 4.0 6.0 0.00 0.00 0.00 72 1019.5
20180716044030 61 238 5.0 7.0 0.00 0.00 0.00 71 1019.4
20180716043532 62 240 5.0 7.0 0.00 0.00 0.00 71 1019.4
20180716043030 62 223 4.0 8.0 0.00 0.00 0.00 71 1019.3
20180716042517 62 236 4.0 9.0 0.00 0.00 0.00 70 1019.3
20180716042035 62 260 3.0 7.0 0.00 0.00 0.00 70 1019.2
20180716041523 62 221 5.0 7.0 0.00 0.00 0.00 69 1019.2
20180716041026 62 245 5.0 7.0 0.00 0.00 0.00 69 1019.2
20180716040528 62 224 4.0 7.0 0.00 0.00 0.00 69 1019.2
20180716040045 63 246 5.0 7.0 0.00 0.00 0.00 68 1019.2
20180716035529 63 246 5.0 8.0 0.00 0.00 0.00 68 1019.3
20180716035030 63 246 6.0 8.0 0.00 0.00 0.00 68 1019.3
20180716034533 63 233 5.0 8.0 0.00 0.00 0.00 67 1019.3
20180716034035 63 278 5.0 8.0 0.00 0.00 0.00 67 1019.3
20180716033523 63 252 5.0 6.0 0.00 0.00 0.00 67 1019.3
20180716033019 63 231 5.0 6.0 0.00 0.00 0.00 67 1019.4
20180716032528 63 243 4.0 7.0 0.00 0.00 0.00 67 1019.4
20180716032028 63 221 5.0 10.0 0.00 0.00 0.00 67 1019.4
20180716031531 63 256 6.0 10.0 0.00 0.00 0.00 66 1019.4
20180716031034 63 236 8.0 11.0 0.00 0.00 0.00 66 1019.4
20180716030521 63 249 6.0 8.0 0.00 0.00 0.00 66 1019.4
20180716030057 63 246 5.0 10.0 0.00 0.00 0.00 66 1019.4
20180716025516 63 281 7.0 10.0 0.00 0.00 0.00 66 1019.5
20180716025018 63 246 7.0 11.0 0.00 0.00 0.00 65 1019.5
20180716024525 64 256 8.0 11.0 0.00 0.00 0.00 65 1019.4
20180716024025 64 240 7.0 11.0 0.00 0.00 0.00 64 1019.4
20180716023533 64 222 8.0 11.0 0.00 0.00 0.00 64 1019.4
20180716023035 64 229 8.0 10.0 0.00 0.00 0.00 64 1019.3
20180716022522 64 245 8.0 10.0 0.00 0.00 0.00 63 1019.4
20180716022018 64 252 5.0 7.0 0.00 0.00 0.00 63 1019.4
20180716021526 64 240 6.0 8.0 0.00 0.00 0.00 63 1019.5
20180716021028 64 252 4.0 6.0 0.00 0.00 0.00 63 1019.5
20180716020531 64 255 3.0 7.0 0.00 0.00 0.00 63 1019.4
20180716020048 64 229 5.0 7.0 0.00 0.00 0.00 63 1019.5
20180716015532 64 261 6.0 7.0 0.00 0.00 0.00 63 1019.3
20180716015029 64 264 4.0 7.0 0.00 0.00 0.00 62 1019.2
20180716014533 64 241 5.0 8.0 0.00 0.00 0.00 62 1019.2
20180716014018 64 266 6.0 8.0 0.00 0.00 0.00 62 1019.3
20180716013528 64 253 5.0 7.0 0.00 0.00 0.00 62 1019.2
20180716013027 64 229 5.0 7.0 0.00 0.00 0.00 61 1019.3
20180716012518 64 257 4.0 6.0 0.00 0.00 0.00 61 1019.3
20180716012019 64 266 4.0 6.0 0.00 0.00 0.00 61 1019.2
20180716011522 64 250 4.0 7.0 0.00 0.00 0.00 60 1019.2
20180716011021 64 260 3.0 7.0 0.00 0.00 0.00 60 1019.3
20180716010527 65 252 5.0 7.0 0.00 0.00 0.00 59 1019.4
20180716010057 65 252 4.0 7.0 0.00 0.00 0.00 58 1019.4
20180716005519 65 264 4.0 8.0 0.00 0.00 0.00 57 1019.4
20180716005016 65 241 5.0 10.0 0.00 0.00 0.00 57 1019.4
20180716004521 65 236 7.0 10.0 0.00 0.00 0.00 56 1019.4
20180716004017 65 237 6.0 8.0 0.00 0.00 0.00 56 1019.4
20180716003521 66 256 5.0 8.0 0.00 0.00 0.00 55 1019.4
20180716003021 66 243 6.0 10.0 0.00 0.00 0.00 54 1019.3
20180716002525 66 240 6.0 11.0 0.00 0.00 0.00 54 1019.3
20180716002027 65 249 6.0 10.0 0.00 0.00 0.00 54 1019.4
20180716001530 65 241 7.0 10.0 0.00 0.00 0.00 53 1019.4
20180716001028 65 256 7.0 10.0 0.00 0.00 0.00 53 1019.4
20180716000516 65 252 6.0 9.0 0.00 0.00 0.00 52 1019.4
20180716000052 66 255 6.0 9.0 0.00 0.00 0.00 52 1019.3
20180715235518 66 267 6.0 9.0 0.00 0.00 0.00 51 1019.3
20180715235035 66 267 5.0 9.0 0.00 0.00 0.00 51 1019.4
20180715234524 66 262 6.0 9.0 0.00 0.00 0.00 51 1019.3
20180715234022 66 252 7.0 10.0 0.00 0.00 0.00 51 1019.4
20180715233528 66 274 7.0 10.0 0.00 0.00 0.00 50 1019.3
20180715233029 67 260 6.0 10.0 0.00 0.00 0.00 50 1019.4
20180715232534 67 253 8.0 11.0 0.00 0.00 0.00 49 1019.4
20180715232027 67 255 8.0 12.0 0.00 0.00 0.00 49 1019.4
20180715231533 67 259 7.0 11.0 0.00 0.00 0.00 48 1019.4
20180715231018 67 250 7.0 11.0 0.00 0.00 0.00 48 1019.3
20180715230524 67 236 8.0 11.0 0.00 0.00 0.00 48 1019.2
20180715230059 68 243 8.0 11.0 0.00 0.00 0.00 48 1019.1
20180715225518 68 274 7.0 10.0 0.00 0.00 0.00 47 1019.0
20180715225019 68 246 7.0 10.0 0.00 0.00 0.00 48 1019.0
20180715224521 68 252 7.0 10.0 0.00 0.00 0.00 48 1019.1
20180715224021 68 259 6.0 9.0 0.00 0.00 0.00 48 1018.9
20180715223526 68 255 7.0 9.0 0.00 0.00 0.00 47 1019.0
20180715223029 68 246 7.0 8.0 0.00 0.00 0.00 47 1018.9
20180715222534 68 232 5.0 9.0 0.00 0.00 0.00 47 1018.9
20180715222033 69 280 6.0 9.0 0.00 0.00 0.00 47 1018.9
20180715221520 69 231 7.0 10.0 0.00 0.00 0.00 47 1018.9
20180715221018 69 266 6.0 10.0 0.00 0.00 0.00 47 1018.9
20180715220524 69 235 7.0 10.0 0.00 0.00 0.00 47 1018.9
20180715220103 69 241 7.0 9.0 0.00 0.00 0.00 47 1018.9
20180715215534 69 271 5.0 7.0 0.00 0.00 0.00 47 1018.8
20180715215033 70 252 5.0 7.0 0.00 0.00 0.00 46 1018.8
20180715214519 70 250 5.0 8.0 0.00 0.00 0.00 45 1018.7
20180715214019 70 250 5.0 9.0 0.00 0.00 0.00 45 1018.7
20180715213529 70 249 7.0 9.0 0.00 0.00 0.00 44 1018.7
20180715213030 71 263 7.0 9.0 0.00 0.00 0.00 44 1018.7
20180715212518 71 270 7.0 10.0 0.00 0.00 0.00 43 1018.7
20180715212016 71 256 7.0 12.0 0.00 0.00 0.00 43 1018.6
20180715211525 72 245 8.0 14.0 0.00 0.00 0.00 43 1018.6
20180715211025 72 258 8.0 15.0 0.00 0.00 0.00 43 1018.6
20180715210530 72 276 10.0 15.0 0.00 0.00 0.00 43 1018.6
20180715210041 72 268 10.0 16.0 0.00 0.00 0.00 43 1018.4
20180715205525 73 260 9.0 16.0 0.00 0.00 0.00 43 1018.4
20180715205025 73 288 11.0 17.0 0.00 0.00 0.00 43 1018.3
20180715204532 73 281 12.0 17.0 0.00 0.00 0.00 43 1018.3
20180715204035 73 280 10.0 18.0 0.00 0.00 0.00 44 1018.2
20180715203523 73 277 11.0 20.0 0.00 0.00 0.00 44 1018.1
20180715203022 73 280 12.0 20.0 0.00 0.00 0.00 44 1018.1
20180715202530 74 268 12.0 19.0 0.00 0.00 0.00 44 1018.0
20180715202058 74 252 11.0 20.0 0.00 0.00 0.00 44 1017.8
20180715201522 74 277 13.0 20.0 0.00 0.00 0.00 44 1017.7
20180715201023 74 288 14.0 19.0 0.00 0.00 0.00 44 1017.7
20180715200529 75 288 13.0 17.0 0.00 0.00 0.00 44 1017.6
20180715200045 75 284 13.0 18.0 0.00 0.00 0.00 44 1017.5
20180715195530 75 282 14.0 21.0 0.00 0.00 0.00 43 1017.3
20180715195034 75 276 14.0 21.0 0.00 0.00 0.00 43 1017.3
20180715194518 75 288 13.0 18.0 0.00 0.00 0.00 43 1017.1
20180715194019 76 278 13.0 18.0 0.00 0.00 0.00 43 1017.1
20180715193522 76 280 13.0 21.0 0.00 0.00 0.00 42 1017.0
20180715193022 76 271 11.0 21.0 0.00 0.00 0.00 41 1017.0
20180715192531 77 249 12.0 18.0 0.00 0.00 0.00 40 1017.0
20180715192033 77 274 13.0 20.0 0.00 0.00 0.00 39 1016.9
20180715191520 77 288 13.0 22.0 0.00 0.00 0.00 39 1016.8
20180715191017 78 282 16.0 22.0 0.00 0.00 0.00 38 1016.8
20180715190525 78 252 12.0 17.0 0.00 0.00 0.00 37 1016.7
20180715190045 78 262 10.0 19.0 0.00 0.00 0.00 37 1016.6
20180715185528 79 283 13.0 19.0 0.00 0.00 0.00 37 1016.6
20180715185030 79 278 13.0 18.0 0.00 0.00 0.00 37 1016.6
20180715184536 79 281 9.0 17.0 0.00 0.00 0.00 36 1016.6
20180715184036 79 288 10.0 18.0 0.00 0.00 0.00 36 1016.5
20180715183524 80 274 14.0 18.0 0.00 0.00 0.00 35 1016.5
20180715183027 80 274 10.0 20.0 0.00 0.00 0.00 35 1016.4
20180715182536 80 274 12.0 17.0 0.00 0.00 0.00 34 1016.3
20180715182035 80 281 11.0 18.0 0.00 0.00 0.00 34 1016.3
20180715181527 80 276 13.0 18.0 0.00 0.00 0.00 34 1016.3
20180715181025 80 280 13.0 19.0 0.00 0.00 0.00 34 1016.3
20180715180530 80 281 15.0 22.0 0.00 0.00 0.00 33 1016.3
20180715180043 80 284 9.0 22.0 0.00 0.00 0.00 33 1016.2
20180715175530 80 271 11.0 21.0 0.00 0.00 0.00 33 1016.2
20180715175032 80 263 11.0 16.0 0.00 0.00 0.00 33 1016.2
20180715174521 81 277 10.0 18.0 0.00 0.00 0.00 32 1016.2
20180715174024 81 290 12.0 18.0 0.00 0.00 0.00 32 1016.2
20180715173528 81 266 14.0 21.0 0.00 0.00 0.00 32 1016.3
20180715173027 81 261 15.0 21.0 0.00 0.00 0.00 32 1016.2
20180715172534 82 249 12.0 23.0 0.00 0.00 0.00 31 1016.3
20180715172033 81 257 16.0 23.0 0.00 0.00 0.00 32 1016.3
20180715171517 81 267 11.0 21.0 0.00 0.00 0.00 32 1016.3
20180715171018 81 252 14.0 21.0 0.00 0.00 0.00 31 1016.4
20180715170529 82 273 14.0 22.0 0.00 0.00 0.00 32 1016.4
20180715170041 82 298 14.0 21.0 0.00 0.00 0.00 31 1016.4
20180715165522 82 276 13.0 20.0 0.00 0.00 0.00 31 1016.5
20180715165026 82 243 14.0 23.0 0.00 0.00 0.00 31 1016.5
20180715164530 82 285 9.0 21.0 0.00 0.00 0.00 32 1016.5
20180715164027 81 273 11.0 21.0 0.00 0.00 0.00 32 1016.5
20180715163535 82 279 14.0 20.0 0.00 0.00 0.00 31 1016.6
20180715163017 82 274 12.0 24.0 0.00 0.00 0.00 30 1016.6
20180715162519 82 246 17.0 25.0 0.00 0.00 0.00 30 1016.6
20180715162021 82 256 18.0 25.0 0.00 0.00 0.00 30 1016.5
20180715161526 82 253 14.0 23.0 0.00 0.00 0.00 29 1016.6
20180715161029 82 281 10.0 22.0 0.00 0.00 0.00 30 1016.6
20180715160535 82 256 16.0 24.0 0.00 0.00 0.00 29 1016.7